Overview Statistics Trail Chart Weather Telemetry Raw packets
 

This is the latest recevied weather packets stored in our database for station/object KI5RAB. If no packets are shown the sender has not sent any weather packets the latest 10 day(s).

<< 31 32 33 34 35 36 37 >>
Time Temp. Humidity Pressure Rain* Wind** Luminosity Snow
1788451898 31.67° C 69% 1017.4 hPa 0 mm - 553 W/m² -
1788451593 31.67° C 69% 1017.4 hPa 0 mm - 539 W/m² -
1788451293 32.22° C 69% 1017.4 hPa 0 mm - 532 W/m² -
1788450992 31.67° C 70% 1017.4 hPa 0 mm - 522 W/m² -
1788450687 31.67° C 71% 1017.3 hPa 0 mm - 517 W/m² -
1788450383 32.22° C 69% 1017.5 hPa 0 mm - 493 W/m² -
1788450079 31.11° C 71% 1017.5 hPa 0 mm - 485 W/m² -
1788449775 31.11° C 70% 1017.5 hPa 0 mm - 489 W/m² -
1788449470 30.56° C 71% 1017.5 hPa 0 mm - 465 W/m² -
1788449166 30.56° C 73% 1017.5 hPa 0 mm - 460 W/m² -
1788448862 30.56° C 74% 1017.6 hPa 0 mm - 434 W/m² -
1788448561 30° C 74% 1017.5 hPa 0 mm - 418 W/m² -
1788448256 30° C 74% 1017.4 hPa 0 mm - 424 W/m² -
1788447950 29.44° C 76% 1017.6 hPa 0 mm - 390 W/m² -
1788447646 29.44° C 76% 1017.4 hPa 0 mm - 315 W/m² -
1788447345 30° C 75% 1017.6 hPa 0 mm - 370 W/m² -
1788447041 29.44° C 75% 1017.7 hPa 0 mm - 345 W/m² -
1788446739 29.44° C 76% 1017.4 hPa 0 mm - 320 W/m² -
1788446436 29.44° C 77% 1017.7 hPa 0 mm - 308 W/m² -
1788446132 29.44° C 77% 1017.3 hPa 0 mm - 298 W/m² -
1788445827 28.89° C 79% 1017.6 hPa 0 mm - 289 W/m² -
1788445522 28.89° C 79% 1017.5 hPa 0 mm - 269 W/m² -
1788445219 28.33° C 81% 1017.6 hPa 0 mm - 263 W/m² -
1788444915 27.78° C 83% 1017.7 hPa 0 mm - 142 W/m² -
1788444610 27.78° C 83% 1017.5 hPa 0 mm - 220 W/m² -

* Rain latest hour (hover to see other rain measurements)
** Current wind speed in m/s (hover to see current wind gust speed)